Other Surface Observations
Issued by NWS

Home | Current Version | Previous Version | Text Only | Print | Product List | Glossary On
Versions: 1 2 3 4 5 6 7 8 9 10 11 12 13 14 15 16 17 18 19 20 21 22 23 24 25 26 27 28 29 30 31 32 33 34 35 36 37 38 39 40 41 42 43 44 45 46 47 48 49 50
000
SXUS52 KTAE 270118
OSOTAE
OSOTAE
North Florida/South Alabama/Southwest Georgia Weather Roundup
National Weather Service Tallahassee Florida
900 PM EDT FRI MAY 26 2017

Note: "fair" indicates few or no clouds below 12,000 feet with no
significant weather and/or obstructions to visibility.

!FLZ017-115-028-034-025-270200
...North Florida...

CITY           SKY/WX    TMP DP  RH WIND       PRES   REMARKS
TALLAHASSEE    PTCLDY    76  63  64 S3        30.03R
APALACHICOLA   CLEAR     73  64  73 SW6       30.04S
PERRY          CLEAR     72  62  70 W6        30.04S
CROSS CITY     CLEAR     72  61  68 W3        30.03S
JACKSONVILLE   PTCLDY    74  62  66 E5        30.01R
$$

!FLZ112-006-005-002-011-270200
...Florida Panhandle...

CITY           SKY/WX    TMP DP  RH WIND       PRES   REMARKS
MARIANNA       CLEAR     79  63  57 W6        30.01R
BONIFAY        NOT AVBL
PANAMA CITY NW FAIR      73  62  68 SW6       30.03S
TYNDALL AFB    NOT AVBL
TYND DRONE APT NOT AVBL
DE FUNIAK SPR  FAIR      73  61  66 CALM      30.04S
EGLIN AFB      NOT AVBL
DESTIN         CLEAR     78  68  71 SW5       30.04R
HURLBURT       NOT AVBL
CRESTVIEW      CLEAR     74  59  59 S6        30.04S
PENSACOLA      CLEAR     74  62  66 S5        30.03S
$$

!ALZ063-066-270200
...South Alabama...

CITY           SKY/WX    TMP DP  RH WIND       PRES   REMARKS
DOTHAN         CLEAR     78  63  59 SW8       30.05R
OZARK CAIRNS   NOT AVBL
FT RUCKER HELI NOT AVBL
RUCKER HELI 3  NOT AVBL
RUCKER HELI 2  NOT AVBL
FLORALA APT    CLEAR     73  59  61 SW5       30.04S
ANDALUSIA      CLEAR     79  60  52 S3        30.01S
TROY           CLEAR     75  67  76 CALM      30.00S
EUFALA         FAIR      74  64  71 CALM      29.99S
MOBILE         PTCLDY    74  62  66 S7        30.03S
$$

!GAZ120>161-270200
...Southwest and South Central Georgia...

CITY           SKY/WX    TMP DP  RH WIND       PRES   REMARKS
THOMASVILLE      N/A    N/A N/A N/A MISG        N/A
BAINBRIDGE     CLEAR     79  64  61 CALM      30.02R
MOODY AFB      NOT AVBL
VALDOSTA       CLEAR     70  59  68 S3        30.01S
MOULTRIE       CLEAR     77  63  61 CALM      30.02S
BLAKELY        CLEAR     77  63  61 CALM      30.01S
ALBANY         CLEAR     78  61  55 SW3       30.02R
TIFTON         FAIR      76  60  58 CALM      30.01S
FITZGERALD     FAIR      71  65  81 CALM      30.03S
CORDELE        FAIR      81  62  50 SW3       30.01S
AMERICUS       FAIR      73  61  64 S3        30.02S
HOMERVILLE     FAIR     N/A N/A N/A CALM      30.01S
$$

!GMZ750-755-770-775-270200
...Coastal and Buoy Obs...

STATION/POSITION TIME  TEMP    WIND        PRES    VSBY  WAVE
                       AIR SEA DIR/SP/G                  HT/PER
                 (UTC) (F)     (DEG/KT/KT) (MB)    (MI)  (FT/S)
KEATON BEACH     0100   76     260/  7/  8 1016.8R
CEDAR KEY        0100   75     280/  3/  4 1017.5S
C TOWER          0100   74     240/  9/ 10 1017.8S
APALACHICOLA BUO 0050   76 81  240/  2/  4 1017.6R         2/ 7
PANAMA CITY BUOY 0050   75 78  170/  6/  8 1017.2S         1/ 8
MOBILE BUOY      0100   76 79  160/  8/ 10 1017.0
ORANGE BCH AL BU 0050   75 78  180/  6/  8 1016.8R         2/ 4
$$




USA.gov is the U.S. government's official web portal to all federal, state and local government web resources and services.